Location: Karcze
(52.0945°N, 22.4786°E)
Time: 02:49:02
(UTC+00:00)

Transit 2A Rocket - Pass Details

Date: 03 August 2021
Orbit: 586 x 917 km, 66.7° (Epoch: 27 September)

Event Time Altitude Azimuth Distance (km) Brightness Sun altitude
Rises 21:03:56 0° 317° (NW) 3,259 9.6 -17.8°
Reaches altitude 10° 21:06:22 10° 311° (NW) 2,379 8.5 -17.9°
Maximum altitude 21:11:30 41° 242° (WSW) 1,212 5.9 -18.2°
Enters shadow 21:14:09 26° 192° (SSW) 1,636 6.2 -18.4°
Drops below altitude 10° 21:16:59 10° 175° (S) 2,541 - -18.5°
Sets 21:19:40 0° 168° (SSE) 3,506 - -18.7°
